Location: Gull Harbor
(47.1000°N, 122.9000°W)
Time: 02:18:57
(UTC-08:00)

Amateur Radio Satellites - All Passes

Search period start: 21 November 2017 01:48
Search period end: 22 November 2017 01:48
Location: Gull Harbor, 47.1000°N, 122.9000°W

Satellite Date Start Highest point End Downlink Frequencies (MHz)
Time Altitude Azimuth
BEESAT 21 Nov 01:57:32 02:01:54 37° 67° (ENE) 02:06:16 436.000
POLYITAN 1 21 Nov 01:57:48 01:59:29 12° 302° (WNW) 02:01:10 437.675
DX 1 21 Nov 02:02:11 02:05:38 23° 266° (W) 02:09:07 434.975-435.025
M-CUBED/EXP-1 PRIME 21 Nov 02:06:51 02:09:53 17° 97° (E) 02:12:57 437.505
ITUPSAT 1 21 Nov 02:06:54 02:11:26 43° 68° (ENE) 02:15:57 437.325
Oscar 19 21 Nov 02:09:27 02:14:38 80° 287° (WNW) 02:19:49 437.125/150
MOZHAYETS 4 21 Nov 02:21:07 02:25:39 72° 73° (ENE) 02:30:13
PCSat 21 Nov 02:21:40 02:26:13 27° 320° (NW) 02:30:48 145.827
nSIGHT-1 21 Nov 02:23:39 02:26:53 88° 196° (SSW) 02:30:04 .
BUGSAT 1 21 Nov 02:27:32 02:30:44 23° 295° (WNW) 02:33:56 437.445
CUBESAT XI-V 21 Nov 02:33:03 02:36:49 25° 64° (ENE) 02:40:35 437.345
Gurwin Techsat 1B 21 Nov 02:33:13 02:38:31 71° 288° (WNW) 02:43:49 435.225
RS-15 21 Nov 02:39:21 02:51:19 63° 43° (NE) 03:02:36 29.354- 29.394
UKube-1 21 Nov 02:46:20 02:48:22 13° 271° (W) 02:50:26 .
BEESAT 2 21 Nov 02:54:45 02:57:20 17° 112° (ESE) 02:59:56 435.950
AO-7 21 Nov 03:01:30 03:09:04 36° 97° (E) 03:16:35 .
ISS 21 Nov 03:07:11 03:10:22 50° 212° (SSW) 03:13:32 437.550
BEESAT 3 21 Nov 03:19:24 03:23:24 90° 110° (ESE) 03:27:26 437.485
YUBILEINY 21 Nov 03:30:35 03:32:52 11° 68° (ENE) 03:35:09 435.215
SO-50 21 Nov 03:35:20 03:36:39 11° 17° (NNE) 03:38:00 436.795
BEESAT 21 Nov 03:35:35 03:39:43 29° 264° (W) 03:43:53 436.000
M-CUBED/EXP-1 PRIME 21 Nov 03:40:06 03:44:34 63° 293° (WNW) 03:49:09 437.505
AO-85 21 Nov 03:44:35 03:47:27 20° 113° (ESE) 03:50:24 145.980
ITUPSAT 1 21 Nov 03:45:32 03:49:25 24° 266° (W) 03:53:20 437.325
Oscar 19 21 Nov 03:50:39 03:53:08 14° 305° (NW) 03:55:39 437.125/150
nSIGHT-1 21 Nov 04:00:42 04:02:43 16° 224° (SW) 04:04:42 .
MOZHAYETS 4 21 Nov 04:01:01 04:03:19 14° 271° (W) 04:05:38
ITAMSAT 1 21 Nov 04:01:33 04:06:47 71° 103° (ESE) 04:11:57 435.822/435.867
CUBESAT XI-V 21 Nov 04:09:40 04:13:59 40° 262° (W) 04:18:22 437.345
PCSat 21 Nov 04:10:52 04:11:37 10° 345° (NNW) 04:12:23 145.827
KKS-1 21 Nov 04:13:51 04:18:16 62° 72° (ENE) 04:22:43 437.445
Gurwin Techsat 1B 21 Nov 04:15:20 04:17:32 13° 307° (NW) 04:19:45 435.225
BEESAT 2 21 Nov 04:30:39 04:34:37 60° 310° (NW) 04:38:40 435.950
STARS 21 Nov 04:38:28 04:42:43 46° 69° (ENE) 04:46:58 437.465
DOVE 4 21 Nov 04:41:57 04:46:47 36° 95° (E) 04:51:23 437.250
RS-15 21 Nov 04:52:26 05:03:29 49° 249° (WSW) 05:14:00 29.354- 29.394
AO-7 21 Nov 04:54:03 05:02:12 60° 297° (WNW) 05:10:21 .
BEESAT 3 21 Nov 04:58:50 05:01:30 17° 327° (NNW) 05:04:10 437.485
STRAND 1 21 Nov 05:04:41 05:07:23 14° 55° (NE) 05:10:05 437.568
SO-50 21 Nov 05:14:25 05:18:33 31° 40° (NE) 05:22:44 436.795
M-CUBED/EXP-1 PRIME 21 Nov 05:17:12 05:18:08 11° 310° (NW) 05:19:05 437.505
YUBILEINY 21 Nov 05:19:05 05:27:33 57° 90° (E) 05:36:06 435.215
AO-85 21 Nov 05:23:41 05:27:29 47° 313° (NW) 05:31:30 145.980
XW-2C 21 Nov 05:24:02 05:26:31 16° 91° (E) 05:29:00 145.795 - 145.815
LilacSat-2 21 Nov 05:25:46 05:28:31 19° 92° (E) 05:31:16 437.200
CUTE-I 21 Nov 05:33:49 05:37:52 21° 91° (E) 05:41:53 437.470
XW-2F 21 Nov 05:34:29 05:37:20 20° 93° (E) 05:40:11 145.980 - 146.000
ITAMSAT 1 21 Nov 05:42:04 05:45:42 20° 302° (WNW) 05:49:20 435.822/435.867
KKS-1 21 Nov 05:52:31 05:55:13 16° 270° (W) 05:57:56 437.445
KAITUO 1B 21 Nov 06:02:01 06:05:25 31° 97° (E) 06:08:48 145.475/437.950
BEESAT 2 21 Nov 06:11:08 06:13:12 13° 331° (NNW) 06:15:15 435.950
STARS 21 Nov 06:15:58 06:19:16 20° 267° (W) 06:22:35 437.465
XW-2D 21 Nov 06:16:40 06:20:29 67° 101° (ESE) 06:24:16 145.860 - 145.880
DOVE 4 21 Nov 06:19:42 06:24:22 34° 294° (WNW) 06:28:52 437.250
FO-29 21 Nov 06:23:16 06:28:48 26° 55° (NE) 06:34:46 435.910
CUBEBUG 2 21 Nov 06:24:09 06:25:29 11° 87° (E) 06:26:49 437.445
XW-2B 21 Nov 06:31:30 06:35:20 86° 287° (WNW) 06:39:09 145.730 - 145.750
STRAND 1 21 Nov 06:40:38 06:45:48 85° 74° (ENE) 06:50:59 437.568
NUDT-PHONESAT 21 Nov 06:46:26 06:50:09 81° 284° (WNW) 06:53:52 437.300
AO-7 21 Nov 06:48:17 06:53:21 18° 320° (NW) 06:58:26 .
HO-68 21 Nov 06:50:24 06:57:12 43° 98° (E) 07:03:56 435.675
SO-50 21 Nov 06:54:44 06:59:11 46° 239° (WSW) 07:03:40 436.795
XW-2C 21 Nov 06:57:17 07:00:54 42° 289° (WNW) 07:04:31 145.795 - 145.815
LilacSat-2 21 Nov 06:59:22 07:02:56 38° 289° (WNW) 07:06:30 437.200
CUTE 1.7 + AOD 2 21 Nov 07:01:36 07:05:46 48° 99° (E) 07:09:54 437.475
AO-85 21 Nov 07:07:16 07:08:58 12° 337° (NNW) 07:10:41 145.980
XW-2F 21 Nov 07:08:05 07:11:32 34° 290° (WNW) 07:15:00 145.980 - 146.000
ZACube-1 21 Nov 07:11:16 07:12:24 11° 88° (E) 07:13:33 437.345
CUTE-I 21 Nov 07:13:01 07:18:19 60° 290° (WNW) 07:23:34 437.470
YUBILEINY 21 Nov 07:16:45 07:24:44 38° 293° (WNW) 07:32:50 435.215
UWE-3 21 Nov 07:19:12 07:22:38 25° 94° (E) 07:26:03 435.000/436.395/437.385
SEEDS 21 Nov 07:31:57 07:36:11 64° 101° (E) 07:40:24 437.485
KAITUO 1B 21 Nov 07:36:16 07:39:14 22° 294° (WNW) 07:42:12 145.475/437.950
AAUSAT CUBESAT 2 21 Nov 07:38:46 07:42:36 33° 96° (E) 07:46:24 437.432
PCSat 21 Nov 07:38:57 07:43:19 24° 38° (NE) 07:47:40 145.827
XW-2D 21 Nov 07:52:34 07:54:08 12° 299° (WNW) 07:55:43 145.860 - 145.880
CUBEBUG 2 21 Nov 07:58:28 08:02:39 73° 286° (WNW) 08:06:46 437.445
AO-73 21 Nov 08:00:09 08:03:52 31° 96° (E) 08:07:36 145.935
UNISAT 6 21 Nov 08:03:11 08:06:45 23° 64° (ENE) 08:10:15 437.425
FO-29 21 Nov 08:06:17 08:12:59 79° 257° (WSW) 08:20:35 435.910
XW-2A 21 Nov 08:07:28 08:10:52 84° 107° (ESE) 08:14:13 145.665 - 145.685
TIGRISAT 21 Nov 08:07:30 08:11:04 23° 64° (ENE) 08:14:35 435.000
Oscar 11 21 Nov 08:16:24 08:20:20 33° 96° (E) 08:24:15 .
STRAND 1 21 Nov 08:23:02 08:25:39 14° 272° (W) 08:28:16 437.568
CUTE 1.7 + AOD 2 21 Nov 08:38:13 08:41:15 19° 297° (WNW) 08:44:18 437.475
HO-68 21 Nov 08:38:13 08:44:58 45° 298° (WNW) 08:51:40 435.675
ZACube-1 21 Nov 08:45:04 08:49:13 75° 286° (WNW) 08:53:22 437.345
UWE-3 21 Nov 08:55:26 08:59:09 32° 292° (WNW) 09:02:51 435.000/436.395/437.385
CUTE-I 21 Nov 08:55:56 08:57:17 11° 309° (NW) 08:58:37 437.470
PRISM 21 Nov 09:00:05 09:03:40 29° 66° (ENE) 09:07:17 437.425
SEEDS 21 Nov 09:08:53 09:11:23 15° 299° (WNW) 09:13:53 437.485
EO-88 21 Nov 09:12:12 09:13:57 13° 90° (E) 09:15:41 145.990 - 145.960
Max Valier Satellite 21 Nov 09:13:25 09:16:05 19° 93° (E) 09:18:45 145.860
AAUSAT CUBESAT 2 21 Nov 09:14:27 09:17:54 25° 294° (WNW) 09:21:22 437.432
AIST 2D 21 Nov 09:20:20 09:21:47 12° 63° (ENE) 09:23:16 435.315
PCSat 21 Nov 09:21:53 09:27:20 80° 239° (WSW) 09:32:44 145.827
AO-73 21 Nov 09:36:34 09:40:01 26° 294° (WNW) 09:43:27 145.935
UNISAT 6 21 Nov 09:38:51 09:43:13 44° 261° (W) 09:47:31 437.425
POLYITAN 1 21 Nov 09:42:51 09:44:10 11° 58° (ENE) 09:45:29 437.675
DELFI C3 21 Nov 09:43:00 09:46:59 60° 100° (E) 09:50:56 145.870
TIGRISAT 21 Nov 09:43:10 09:47:31 43° 262° (W) 09:51:48 435.000
Oscar 11 21 Nov 09:52:42 09:56:22 27° 294° (WNW) 10:00:01 .
FO-29 21 Nov 09:55:23 09:59:23 16° 279° (W) 10:03:38 435.910
BEESAT 3 21 Nov 09:56:16 09:59:24 22° 38° (NE) 10:02:29 437.485
QB50P2 21 Nov 10:04:09 10:07:13 20° 63° (ENE) 10:10:17 145.880/145.840
HO-68 21 Nov 10:28:48 10:30:56 11° 320° (NW) 10:33:02 435.675
AO-85 21 Nov 10:31:29 10:33:53 14° 27° (NNE) 10:36:22 145.980
PRISM 21 Nov 10:35:19 10:38:53 28° 264° (W) 10:42:31 437.425
EO-88 21 Nov 10:44:19 10:47:52 50° 288° (WNW) 10:51:25 145.990 - 145.960
Max Valier Satellite 21 Nov 10:46:40 10:50:00 34° 290° (WNW) 10:53:20 145.860
AIST 2D 21 Nov 10:51:09 10:54:32 53° 261° (W) 10:57:57 435.315
DUCHIFAT 1 21 Nov 10:52:19 10:56:16 40° 70° (ENE) 11:00:13 145.980
EO-79 21 Nov 10:59:41 11:03:52 62° 73° (ENE) 11:08:04 145.935-145.965
NANOSAT C BR1 21 Nov 11:02:47 11:06:57 59° 72° (ENE) 11:11:07 145.865
ESTCUBE 1 21 Nov 11:06:14 11:10:12 29° 95° (E) 11:14:09 437.505/2401.250
PCSat 21 Nov 11:07:34 11:09:50 13° 258° (WSW) 11:12:05 145.827
BEESAT 2 21 Nov 11:07:57 11:11:35 30° 42° (NE) 11:15:09 435.950
LO-87 21 Nov 11:08:01 11:11:22 37° 98° (E) 11:14:40 145.935 - 145.965
POLYITAN 1 21 Nov 11:15:01 11:19:16 89° 73° (ENE) 11:23:32 437.675
FALCONSAT 3 21 Nov 11:18:19 11:20:07 13° 175° (S) 11:21:57 435.103
DELFI C3 21 Nov 11:19:02 11:21:15 15° 299° (WNW) 11:23:29 145.870
BEESAT 3 21 Nov 11:33:21 11:37:14 57° 238° (WSW) 11:41:03 437.485
QB50P2 21 Nov 11:38:35 11:42:41 47° 261° (W) 11:46:48 145.880/145.840
BUGSAT 1 21 Nov 11:43:54 11:47:47 37° 69° (ENE) 11:51:38 437.445
Oscar 19 21 Nov 11:51:01 11:55:26 30° 64° (ENE) 11:59:52 437.125/150
AO-85 21 Nov 12:10:46 12:15:16 51° 48° (NE) 12:20:05 145.980
AO-7 21 Nov 12:15:07 12:20:24 19° 42° (NE) 12:25:43 .
Gurwin Techsat 1B 21 Nov 12:18:04 12:22:56 38° 66° (ENE) 12:27:50 435.225
SPROUT 21 Nov 12:20:39 12:24:42 42° 98° (E) 12:28:44 437.525
DUCHIFAT 1 21 Nov 12:28:52 12:32:05 21° 267° (W) 12:35:19 145.980
EO-79 21 Nov 12:37:44 12:40:01 14° 270° (W) 12:42:19 145.935-145.965
NANOSAT C BR1 21 Nov 12:40:38 12:43:02 15° 270° (W) 12:45:25 145.865
LO-87 21 Nov 12:42:09 12:44:29 17° 296° (WNW) 12:46:48 145.935 - 145.965
ESTCUBE 1 21 Nov 12:42:56 12:47:01 33° 293° (WNW) 12:51:04 437.505/2401.250
BEESAT 2 21 Nov 12:45:38 12:49:21 36° 242° (WSW) 12:53:00 435.950
50 SAT 21 Nov 12:52:03 12:53:07 11° 91° (E) 12:54:11 437.505
M-CUBED/EXP-1 PRIME 21 Nov 12:55:02 12:58:11 28° 60° (ENE) 13:01:33 437.505
FALCONSAT 3 21 Nov 12:57:02 12:58:22 12° 191° (S) 12:59:42 435.103
O/OREOS (USA 219) 21 Nov 12:57:44 13:01:47 31° 105° (ESE) 13:05:51 437.305
VELOX 1 21 Nov 13:01:32 13:06:01 71° 102° (ESE) 13:10:27 145.980
BUGSAT 1 21 Nov 13:19:56 13:23:14 22° 266° (W) 13:26:33 437.445
Oscar 19 21 Nov 13:29:50 13:34:37 40° 262° (W) 13:39:28 437.125/150
ITAMSAT 1 21 Nov 13:44:39 13:48:44 24° 60° (ENE) 13:52:48 435.822/435.867
DX 1 21 Nov 13:45:58 13:50:15 48° 100° (E) 13:54:29 434.975-435.025
AO-85 21 Nov 13:51:34 13:55:30 26° 245° (WSW) 13:59:38 145.980
SPROUT 21 Nov 13:57:06 14:00:21 22° 296° (WNW) 14:03:34 437.525
Gurwin Techsat 1B 21 Nov 13:58:09 14:02:55 33° 264° (W) 14:07:44 435.225
AO-7 21 Nov 14:03:32 14:11:40 64° 64° (ENE) 14:19:52 .
MOZHAYETS 4 21 Nov 14:14:30 14:16:45 13° 88° (E) 14:19:00
50 SAT 21 Nov 14:22:22 14:25:29 44° 288° (WNW) 14:28:33 437.505
UKube-1 21 Nov 14:27:12 14:31:35 82° 105° (ESE) 14:35:54 .
M-CUBED/EXP-1 PRIME 21 Nov 14:29:28 14:32:33 26° 260° (W) 14:35:51 437.505
O/OREOS (USA 219) 21 Nov 14:36:57 14:41:09 34° 304° (NW) 14:45:21 437.305
VELOX 1 21 Nov 14:39:19 14:41:55 15° 301° (WNW) 14:44:31 145.980
NO-84 21 Nov 15:21:38 15:25:13 49° 138° (SE) 15:29:07 435.350 FM
ITAMSAT 1 21 Nov 15:22:40 15:27:48 57° 259° (W) 15:32:59 435.822/435.867
DX 1 21 Nov 15:22:52 15:26:06 20° 298° (WNW) 15:29:20 434.975-435.025
YUBILEINY 21 Nov 15:25:22 15:33:14 34° 65° (ENE) 15:41:01 435.215
BEESAT 21 Nov 15:31:35 15:36:16 55° 101° (E) 15:40:55 436.000
HO-68 21 Nov 15:40:55 15:42:52 11° 40° (NE) 15:44:48 435.675
ITUPSAT 1 21 Nov 15:41:33 15:46:19 67° 102° (ESE) 15:51:02 437.325
DOVE 4 21 Nov 15:49:24 15:54:17 49° 70° (ENE) 15:59:23 437.250
MOZHAYETS 4 21 Nov 15:49:51 15:54:26 74° 286° (WNW) 15:58:59
AO-7 21 Nov 15:57:40 16:04:56 33° 265° (W) 16:12:16 .
CUBESAT XI-V 21 Nov 16:02:36 16:07:00 39° 97° (E) 16:11:24 437.345
UKube-1 21 Nov 16:04:58 16:06:58 13° 302° (WNW) 16:08:57 .
XW-2C 21 Nov 16:08:57 16:10:48 13° 62° (ENE) 16:12:40 145.795 - 145.815
LilacSat-2 21 Nov 16:11:07 16:13:21 15° 63° (ENE) 16:15:34 437.200
XW-2F 21 Nov 16:18:41 16:20:58 16° 63° (ENE) 16:23:15 145.980 - 146.000
KAITUO 1B 21 Nov 16:44:54 16:47:50 23° 67° (ENE) 16:50:48 145.475/437.950
CUTE-I 21 Nov 16:58:12 17:03:18 46° 67° (ENE) 17:08:26 437.470
NO-84 21 Nov 16:58:58 17:02:40 41° 339° (NNW) 17:06:37 435.350 FM
XW-2D 21 Nov 17:00:25 17:04:00 47° 72° (ENE) 17:07:38 145.860 - 145.880
RS-15 21 Nov 17:08:52 17:18:01 26° 100° (E) 17:27:06 29.354- 29.394
BEESAT 21 Nov 17:10:09 17:13:40 21° 299° (WNW) 17:17:10 436.000
XW-2B 21 Nov 17:15:08 17:18:51 68° 75° (ENE) 17:22:35 145.730 - 145.750
ITUPSAT 1 21 Nov 17:20:29 17:23:38 18° 301° (WNW) 17:26:47 437.325
YUBILEINY 21 Nov 17:21:56 17:30:39 65° 268° (W) 17:39:19 435.215
HO-68 21 Nov 17:22:06 17:28:48 44° 62° (ENE) 17:35:31 435.675
CUBEBUG 2 21 Nov 17:24:15 17:27:07 17° 62° (ENE) 17:29:56 437.445
NUDT-PHONESAT 21 Nov 17:27:47 17:31:24 67° 74° (ENE) 17:35:03 437.300
DOVE 4 21 Nov 17:28:03 17:32:12 25° 269° (W) 17:36:31 437.250
MOZHAYETS 4 21 Nov 17:29:52 17:30:46 11° 305° (NW) 17:31:40
KKS-1 21 Nov 17:37:56 17:42:27 81° 105° (ESE) 17:46:53 437.445
CUBESAT XI-V 21 Nov 17:40:17 17:44:13 27° 295° (WNW) 17:48:09 437.345
XW-2C 21 Nov 17:40:51 17:44:31 57° 260° (W) 17:48:13 145.795 - 145.815
LilacSat-2 21 Nov 17:43:35 17:47:14 49° 260° (W) 17:50:55 437.200
XW-2F 21 Nov 17:51:08 17:54:43 46° 261° (W) 17:58:20 145.980 - 146.000
CUTE 1.7 + AOD 2 21 Nov 17:56:48 18:00:51 49° 72° (ENE) 18:04:56 437.475
STARS 21 Nov 18:00:36 18:04:58 57° 101° (ESE) 18:09:16 437.465
ZACube-1 21 Nov 18:09:29 18:11:47 14° 61° (ENE) 18:14:06 437.345
KAITUO 1B 21 Nov 18:18:28 18:21:42 28° 264° (W) 18:24:57 145.475/437.950
UWE-3 21 Nov 18:18:40 18:22:33 31° 68° (ENE) 18:26:21 435.000/436.395/437.385
SEEDS 21 Nov 18:26:04 18:30:10 62° 73° (ENE) 18:34:19 437.485
AAUSAT CUBESAT 2 21 Nov 18:31:29 18:35:10 32° 68° (ENE) 18:38:53 437.432
XW-2D 21 Nov 18:36:24 18:38:28 14° 270° (W) 18:40:32 145.860 - 145.880
NO-84 21 Nov 18:37:19 18:40:49 27° 0° (N) 18:44:26 435.350 FM
CUTE-I 21 Nov 18:38:58 18:43:31 28° 266° (W) 18:48:07 437.470
XW-2A 21 Nov 18:41:05 18:44:14 41° 72° (ENE) 18:47:23 145.665 - 145.685
STRAND 1 21 Nov 18:48:41 18:52:43 23° 92° (E) 18:56:42 437.568
XW-2B 21 Nov 18:53:13 18:53:28 10° 272° (W) 18:53:44 145.730 - 145.750
AO-73 21 Nov 18:58:12 19:02:07 36° 70° (ENE) 19:05:59 145.935
CUBEBUG 2 21 Nov 18:58:45 19:03:18 64° 259° (W) 19:07:43 437.445
HO-68 21 Nov 19:09:44 19:16:31 44° 262° (W) 19:23:22 435.675
Oscar 11 21 Nov 19:13:51 19:17:47 37° 69° (ENE) 19:21:46 .
FO-29 21 Nov 19:13:58 19:18:59 18° 83° (E) 19:23:50 435.910
KKS-1 21 Nov 19:16:06 19:18:22 14° 302° (WNW) 19:20:39 437.445
RS-15 21 Nov 19:16:24 19:28:44 83° 123° (ESE) 19:40:59 29.354- 29.394
YUBILEINY 21 Nov 19:21:44 19:25:34 14° 290° (WNW) 19:29:24 435.215
CUTE 1.7 + AOD 2 21 Nov 19:34:10 19:36:58 17° 269° (W) 19:39:47 437.475
STARS 21 Nov 19:37:56 19:40:53 18° 299° (WNW) 19:43:49 437.465
ZACube-1 21 Nov 19:43:17 19:47:35 68° 258° (WSW) 19:51:49 437.345
UWE-3 21 Nov 19:55:06 19:58:58 29° 265° (W) 20:02:47 435.000/436.395/437.385
Max Valier Satellite 21 Nov 19:55:44 19:57:45 14° 63° (ENE) 19:59:46 145.860
SEEDS 21 Nov 20:04:09 20:06:17 14° 271° (W) 20:08:24 437.485
AAUSAT CUBESAT 2 21 Nov 20:07:13 20:10:39 25° 266° (W) 20:14:07 437.432
NO-84 21 Nov 20:14:58 20:18:57 41° 21° (NNE) 20:23:01 435.350 FM
XW-2A 21 Nov 20:15:35 20:17:08 13° 269° (W) 20:18:42 145.665 - 145.685
STRAND 1 21 Nov 20:27:12 20:32:11 52° 291° (WNW) 20:37:07 437.568
DELFI C3 21 Nov 20:30:38 20:34:28 50° 72° (ENE) 20:38:21 145.870
AO-73 21 Nov 20:35:00 20:38:27 23° 266° (W) 20:41:52 145.935
nSIGHT-1 21 Nov 20:38:55 20:41:43 27° 142° (SE) 20:44:31 .
Oscar 11 21 Nov 20:50:33 20:54:01 24° 267° (W) 20:57:31 .
FO-29 21 Nov 20:57:16 21:05:13 79° 103° (ESE) 21:12:42 435.910
SO-50 21 Nov 21:12:06 21:15:49 26° 115° (ESE) 21:19:34 436.795
EO-88 21 Nov 21:24:07 21:27:44 79° 259° (W) 21:31:23 145.990 - 145.960
ISS 21 Nov 21:24:46 21:27:58 54° 148° (SSE) 21:31:11 437.550
O/OREOS (USA 219) 21 Nov 21:25:52 21:28:45 16° 46° (NE) 21:31:35 437.305
UNISAT 6 21 Nov 21:27:24 21:31:10 29° 95° (E) 21:34:53 437.425
Max Valier Satellite 21 Nov 21:27:38 21:31:11 49° 260° (W) 21:34:45 145.860
RS-15 21 Nov 21:30:56 21:42:36 45° 331° (NNW) 21:54:03 29.354- 29.394
TIGRISAT 21 Nov 21:31:33 21:35:19 29° 95° (E) 21:39:01 435.000
LO-87 21 Nov 21:46:44 21:49:45 25° 68° (ENE) 21:52:45 145.935 - 145.965
NO-84 21 Nov 21:52:19 21:56:30 57° 220° (SW) 22:00:40 435.350 FM
DELFI C3 21 Nov 22:07:07 22:09:30 15° 270° (W) 22:11:55 145.870
ESTCUBE 1 21 Nov 22:08:24 22:12:32 38° 68° (ENE) 22:16:42 437.505/2401.250
PRISM 21 Nov 22:12:54 22:16:36 30° 96° (E) 22:20:16 437.425
nSIGHT-1 21 Nov 22:14:36 22:17:47 61° 341° (NNW) 22:20:58 .
VELOX 1 21 Nov 22:28:06 22:29:55 12° 57° (ENE) 22:31:45 145.980
FO-29 21 Nov 22:43:02 22:49:25 28° 304° (NW) 22:55:38 435.910
SO-50 21 Nov 22:51:44 22:56:03 46° 314° (NW) 23:00:26 436.795
POLYITAN 1 21 Nov 22:58:47 23:00:10 11° 88° (E) 23:01:34 437.675
ISS 21 Nov 23:01:23 23:04:32 43° 348° (NNW) 23:07:41 437.550
UNISAT 6 21 Nov 23:04:07 23:07:51 29° 293° (WNW) 23:11:33 437.425
O/OREOS (USA 219) 21 Nov 23:04:12 23:08:47 81° 247° (WSW) 23:13:17 437.305
TIGRISAT 21 Nov 23:08:15 23:11:58 29° 293° (WNW) 23:15:38 435.000
SPROUT 21 Nov 23:16:22 23:20:28 47° 71° (ENE) 23:24:35 437.525
LO-87 21 Nov 23:20:05 23:23:06 25° 265° (W) 23:26:07 145.935 - 145.965
QB50P2 21 Nov 23:20:37 23:23:54 22° 93° (E) 23:27:10 145.880/145.840
NO-84 21 Nov 23:32:21 23:33:05 10° 237° (WSW) 23:33:50 435.350 FM
AIST 2D 21 Nov 23:45:41 23:49:13 68° 284° (WNW) 23:52:43 435.315
ESTCUBE 1 21 Nov 23:45:44 23:49:26 25° 266° (W) 23:53:10 437.505/2401.250
PRISM 21 Nov 23:48:12 23:51:48 28° 294° (WNW) 23:55:21 437.425
RS-15 21 Nov 23:48:16 23:59:02 34° 4° (N) 00:09:25 29.354- 29.394
UKube-1 21 Nov 23:50:59 23:53:02 13° 58° (ENE) 23:55:05 .
nSIGHT-1 21 Nov 23:51:23 23:54:22 34° 359° (N) 23:57:21 .
VELOX 1 22 Nov 00:01:13 00:05:40 89° 68° (ENE) 00:10:09 145.980
PCSat 22 Nov 00:06:16 00:11:30 51° 116° (ESE) 00:16:45 145.827
DUCHIFAT 1 22 Nov 00:08:20 00:12:23 47° 100° (E) 00:16:23 145.980
EO-79 22 Nov 00:16:40 00:20:54 76° 103° (ESE) 00:25:04 145.935-145.965
NANOSAT C BR1 22 Nov 00:19:20 00:23:31 72° 102° (ESE) 00:27:41 145.865
POLYITAN 1 22 Nov 00:32:16 00:36:28 75° 286° (WNW) 00:40:38 437.675
Gurwin Techsat 1B 22 Nov 00:33:30 00:34:53 11° 85° (E) 00:36:17 435.225
SO-50 22 Nov 00:35:23 00:37:38 13° 337° (NNW) 00:39:54 436.795
ISS 22 Nov 00:38:21 00:41:27 37° 8° (N) 00:44:32 437.550
DX 1 22 Nov 00:43:58 00:48:17 62° 72° (ENE) 00:52:38 434.975-435.025
50 SAT 22 Nov 00:51:35 00:54:49 84° 75° (ENE) 00:58:05 437.505
SPROUT 22 Nov 00:53:33 00:56:36 19° 268° (W) 00:59:39 437.525
QB50P2 22 Nov 00:55:55 00:59:50 38° 291° (WNW) 01:03:43 145.880/145.840
BUGSAT 1 22 Nov 00:57:29 01:01:18 39° 98° (E) 01:05:05 437.445
BEESAT 22 Nov 01:06:00 01:08:21 14° 56° (ENE) 01:10:42 436.000
ITUPSAT 1 22 Nov 01:15:38 01:18:34 16° 58° (ENE) 01:21:30 437.325
MOZHAYETS 4 22 Nov 01:18:54 01:22:10 20° 62° (ENE) 01:25:26
UKube-1 22 Nov 01:24:06 01:28:26 81° 256° (WSW) 01:32:48 .
nSIGHT-1 22 Nov 01:27:47 01:30:58 60° 20° (NNE) 01:34:08 .
BEESAT 3 22 Nov 01:28:35 01:29:04 10° 108° (ESE) 01:29:34 437.485
Oscar 19 22 Nov 01:37:40 01:42:45 55° 100° (E) 01:47:49 437.125/150
VELOX 1 22 Nov 01:41:57 01:42:46 10° 273° (W) 01:43:34 145.980
